User: anonymous   Login
Location: Maiden
(35.5760°N, 81.2120°W)
Time: 11:10:25
(UTC-05:00)
Language:

Cosmos 1400 Rocket - Orbit

View from above orbital plane
View from above orbital plane
View from above satellite
View from above satellite

Ground track
Ground track

The orbit data is extracted from the following two-line orbital elements,

1 13403U 82079B   19015.92772626 +.00000476 +00000-0 +29899-4 0  9992
2 13403 081.1696 327.4004 0033324 170.6404 189.5449 15.06939807983504
Epoch (UTC): 15 January 2019 22:15:55
Eccentricity: 0.0033324
inclination: 81.1696°
perigee height: 522 km
apogee height: 568 km
right ascension of ascending node: 327.4004°
argument of perigee: 170.6404°
revolutions per day: 15.06939807
mean anomaly at epoch: 189.5449°
orbit number at epoch: 98350

The dashed part of the orbit path shows where the satellite is in the earth's shadow,  

DLR